N0NAI-13 Weather Reports


time (UTC)temp
C
wind
direction
speed
KPH
gust
KPH
rain 1hr
cm
rain 24hr
cm
rain mn
cm
humidity
%
barometer
mb
20260504034528 10 0.0 0.0 0.00 0.00 0.00 63 1007.4
20260504033524 10 0.0 0.0 0.00 0.00 0.00 63 1007.5
20260504032515 10 0.0 0.0 0.00 0.00 0.00 61 1007.6
20260504031518 11 0.0 0.0 0.00 0.00 0.00 60 1007.8
20260504030521 11 0.0 0.0 0.00 0.00 0.00 58 1007.8
20260504025524 11 0.0 0.0 0.00 0.00 0.00 56 1007.6
20260504024527 12 0.0 0.0 0.00 0.00 0.00 55 1007.6
20260504023530 12 0.0 0.0 0.00 0.00 0.00 54 1007.6
20260504022532 13 0.0 0.0 0.00 0.00 0.00 51 1007.6
20260504021518 13 0.0 0.0 0.00 0.00 0.00 49 1007.4
20260504020520 13 0.0 0.0 0.00 0.00 0.00 51 1007.3
20260504015523 13 0.0 0.0 0.00 0.00 0.00 49 1007.3
20260504014526 15 90 0.0 1.6 0.00 0.00 0.00 47 1007.3
20260504013529 15 0.0 0.0 0.00 0.00 0.00 43 1007.3
20260504012532 16 0.0 0.0 0.00 0.00 0.00 41 1007.2
20260504011517 17 11 0.0 3.2 0.00 0.00 0.00 38 1007.3
20260504010519 18 0.0 0.0 0.00 0.00 0.00 37 1007.2
20260504005522 20 22 1.6 4.8 0.00 0.00 0.00 34 1007.2
20260504004525 21 310 3.2 8.0 0.00 0.00 0.00 32 1007.2
20260504003528 22 319 4.8 9.7 0.00 0.00 0.00 31 1007.2
20260504002524 23 321 3.2 6.4 0.00 0.00 0.00 29 1007.2
20260504001521 23 300 3.2 6.4 0.00 0.00 0.00 28 1007.2
20260504000518 22 272 4.8 8.0 0.00 0.00 0.00 28 1007.2
20260503235521 23 297 4.8 8.0 0.00 0.00 0.00 26 1007.3
20260503234524 23 262 4.8 11.3 0.00 0.00 0.00 26 1007.3
20260503233527 23 274 6.4 12.9 0.00 0.00 0.00 27 1007.3
20260503232530 24 272 6.4 11.3 0.00 0.00 0.00 28 1007.3
20260503231515 24 299 4.8 11.3 0.00 0.00 0.00 28 1007.2
20260503230518 24 272 6.4 11.3 0.00 0.00 0.00 27 1007.2
20260503225521 24 11.3 11.3 0.00 0.00 0.00 27 1007.2
20260503224524 25 270 8.0 16.1 0.00 0.00 0.00 27 1007.1
20260503223527 25 304 6.4 9.7 0.00 0.00 0.00 27 1007.0
20260503222530 25 265 8.0 16.1 0.00 0.00 0.00 26 1007.0
20260503221532 25 269 6.4 9.7 0.00 0.00 0.00 27 1007.1
20260503220517 25 283 8.0 12.9 0.00 0.00 0.00 28 1007.0
20260503215520 25 281 8.0 17.7 0.00 0.00 0.00 30 1007.1
20260503214523 24 12.9 12.9 0.00 0.00 0.00 30 1007.1
20260503213526 25 334 8.0 12.9 0.00 0.00 0.00 31 1007.1
20260503212529 24 285 11.3 24.1 0.00 0.00 0.00 32 1007.2
20260503211526 24 288 6.4 12.9 0.00 0.00 0.00 31 1007.3
20260503210517 24 328 11.3 17.7 0.00 0.00 0.00 29 1007.4
20260503205520 25 274 11.3 19.3 0.00 0.00 0.00 28 1007.4
20260503204517 25 274 4.8 8.0 0.00 0.00 0.00 30 1007.4
20260503203526 25 283 6.4 12.9 0.00 0.00 0.00 31 1007.5
20260503202529 24 260 6.4 9.7 0.00 0.00 0.00 32 1007.6
20260503201532 24 259 6.4 11.3 0.00 0.00 0.00 31 1007.6
20260503200517 24 273 8.0 11.3 0.00 0.00 0.00 30 1007.8
20260503195520 24 312 9.7 14.5 0.00 0.00 0.00 29 1007.8
20260503194523 24 259 8.0 12.9 0.00 0.00 0.00 35 1007.8
20260503193526 24 278 8.0 14.5 0.00 0.00 0.00 33 1007.8
20260503192528 23 274 6.4 14.5 0.00 2.82 0.00 33 1007.8
20260503191531 23 284 8.0 14.5 0.00 2.82 0.00 36 1007.8
20260503190516 23 266 9.7 14.5 0.00 2.82 0.00 37 1007.9
20260503185519 23 286 9.7 16.1 0.00 2.82 0.00 38 1007.9
20260503184522 23 290 6.4 11.3 0.00 2.82 0.00 36 1008.0
20260503183524 23 168 6.4 11.3 0.00 2.82 0.00 37 1008.1
20260503182527 22 305 9.7 14.5 0.00 2.82 0.00 38 1008.1
20260503181530 22 300 6.4 11.3 0.00 2.82 0.00 40 1008.1
20260503180515 22 295 9.7 19.3 0.00 2.82 0.00 40 1008.1
20260503175518 22 282 9.7 14.5 0.00 2.82 0.00 39 1008.1
20260503174521 22 349 9.7 16.1 0.00 2.82 0.00 40 1008.1
20260503173517 22 262 8.0 17.7 0.00 2.82 0.00 41 1008.2
20260503172527 22 293 8.0 14.5 0.00 2.82 0.00 41 1008.3
20260503171529 22 280 6.4 11.3 0.00 2.82 0.00 42 1008.1
20260503170532 22 271 8.0 11.3 0.00 2.82 0.00 42 1008.1
20260503150530 18 192 4.8 11.3 0.00 2.82 0.00 45 1008.6
20260503130529 12 191 8.0 14.5 0.00 2.82 0.00 52 1009.2
20260503110517 11 197 4.8 14.5 0.00 2.82 0.00 59 1009.1
20260503081525 12 262 3.2 6.4 0.00 2.82 0.00 54 1011.9
20260503080522 12 297 3.2 8.0 0.00 2.82 0.00 51 1011.9
20260503072521 11 202 3.2 9.7 0.00 2.82 0.00 50 1011.7
20260503071524 11 206 3.2 8.0 0.00 2.82 0.00 50 1012.1
20260503070527 11 188 1.6 3.2 0.00 2.82 0.00 49 1012.4
20260503054526 12 231 4.8 6.4 0.00 2.82 0.00 46 1012.9
20260503053529 12 211 4.8 9.7 0.00 2.82 0.00 46 1013.0
20260503052533 12 193 3.2 8.0 0.00 2.82 0.00 47 1013.2
20260503051525 12 208 1.6 4.8 0.00 2.82 0.00 47 1013.1
20260503050516 12 216 4.8 8.0 0.00 2.82 0.00 47 1013.2
20260503045519 12 145 0.0 3.2 0.00 2.82 2.82 48 1013.4
20260503044516 12 199 3.2 4.8 0.00 2.82 2.82 48 1013.4
20260503043525 12 154 1.6 4.8 0.00 2.82 2.82 48 1013.4
20260503042527 12 166 1.6 6.4 0.00 2.82 2.82 49 1013.5
20260503041530 12 168 3.2 4.8 0.00 2.82 2.82 50 1013.6
20260503040533 12 197 1.6 4.8 0.00 2.82 2.82 51 1013.8
20260503035518 12 0.0 0.0 0.00 2.82 2.82 51 1013.9